N0ERG Weather Reports


Display with metric or nautical units.
time (UTC)temp
F
wind
direction
speed
MPH
gust
MPH
rain 1hr
in
rain 24hr
in
rain mn
in
humidity
%
barometer
mb
20240519212004 77 250 6.0 14.0 0.00 0.00 0.00 25 995.4
20240519211004 79 284 6.0 14.0 0.00 0.00 0.00 24 995.5
20240519210004 80 70 1.0 5.0 0.00 0.00 0.00 22 995.1
20240519204004 82 58 0.0 7.0 0.00 0.00 0.00 21 995.1
20240519203003 83 309 1.0 9.0 0.00 0.00 0.00 20 995.1
20240519201004 82 213 2.0 3.0 0.00 0.00 0.00 24 995.3
20240519200003 81 298 1.0 6.0 0.00 0.00 0.00 22 995.6
20240519195003 80 176 1.0 6.0 0.00 0.00 0.00 22 995.6
20240519194003 81 197 1.0 6.0 0.00 0.00 0.00 21 995.7
20240519192003 81 42 2.0 12.0 0.00 0.00 0.00 29 995.7
20240519191004 81 60 5.0 9.0 0.00 0.00 0.00 25 995.9
20240519184004 80 54 2.0 8.0 0.00 0.00 0.00 29 996.4
20240519181004 80 83 2.0 7.0 0.00 0.00 0.00 30 997.1
20240519180004 78 56 1.0 5.0 0.00 0.00 0.00 33 997.2
20240519173003 78 107 1.0 3.0 0.00 0.00 0.00 25 997.6
20240519172003 78 248 2.0 3.0 0.00 0.00 0.00 24 997.6
20240519171004 77 37 2.0 5.0 0.00 0.00 0.00 30 997.6
20240519170003 77 87 2.0 3.0 0.00 0.00 0.00 26 997.6
20240519164004 75 309 1.0 7.0 0.00 0.00 0.00 28 997.7
20240519163004 75 169 2.0 7.0 0.00 0.00 0.00 33 997.9
20240519162004 74 219 3.0 9.0 0.00 0.00 0.00 33 998.0
20240519161003 73 151 1.0 8.0 0.00 0.00 0.00 37 998.0
20240519160004 72 160 2.0 8.0 0.00 0.00 0.00 37 998.3
20240519155004 71 197 3.0 7.0 0.00 0.00 0.00 38 998.6
20240519154003 70 171 3.0 8.0 0.00 0.00 0.00 40 998.6
20240519153003 69 187 3.0 10.0 0.00 0.00 0.00 40 998.7
20240519151003 67 122 2.0 10.0 0.00 0.00 0.00 44 999.0
20240519145004 65 141 2.0 8.0 0.00 0.00 0.00 48 999.2
20240519144003 64 240 2.0 12.0 0.00 0.00 0.00 50 999.3
20240519143005 63 136 4.0 12.0 0.00 0.00 0.00 51 999.3
20240519142004 62 260 1.0 9.0 0.00 0.00 0.00 54 999.4
20240519141004 61 160 3.0 12.0 0.00 0.00 0.00 55 999.5
20240519140003 60 185 3.0 8.0 0.00 0.00 0.00 57 999.6
20240519135004 60 162 3.0 6.0 0.00 0.00 0.00 59 999.7
20240519133004 58 135 2.0 8.0 0.00 0.00 0.00 61 1000.0
20240519132004 57 128 2.0 12.0 0.00 0.00 0.00 62 1000.1
20240519131004 56 165 3.0 12.0 0.00 0.00 0.00 63 1000.3
20240519130004 56 71 2.0 8.0 0.00 0.00 0.00 64 1000.5
20240519125004 56 102 0.0 7.0 0.00 0.00 0.00 65 1000.6
20240519124004 56 190 1.0 5.0 0.00 0.00 0.00 64 1000.7
20240519121004 56 174 1.0 7.0 0.00 0.00 0.00 63 1000.8
20240519120003 56 61 2.0 6.0 0.00 0.00 0.00 63 1001.0
20240519112004 56 165 3.0 10.0 0.00 0.00 0.00 61 1001.3
20240519111004 56 163 4.0 12.0 0.00 0.00 0.00 61 1001.4
20240519110004 56 144 3.0 13.0 0.00 0.00 0.00 61 1001.5
20240519105004 56 157 2.0 9.0 0.00 0.00 0.00 62 1001.5
20240519104003 56 101 1.0 7.0 0.00 0.00 0.00 61 1001.5
20240519103004 56 134 3.0 7.0 0.00 0.00 0.00 61 1001.6
20240519102003 56 162 1.0 8.0 0.00 0.00 0.00 62 1001.6
20240519101004 56 183 2.0 8.0 0.00 0.00 0.00 62 1001.7
20240519100003 56 143 1.0 7.0 0.00 0.00 0.00 63 1001.8
20240519095004 56 155 2.0 7.0 0.00 0.00 0.00 63 1001.9
20240519094004 56 44 1.0 2.0 0.00 0.00 0.00 63 1002.1
20240519093003 57 44 0.0 2.0 0.00 0.00 0.00 61 1002.2
20240519092004 57 323 0.0 1.0 0.00 0.00 0.00 60 1002.3
20240519091004 57 340 1.0 3.0 0.00 0.00 0.00 60 1002.2
20240519090004 58 108 2.0 3.0 0.00 0.00 0.00 60 1002.2
20240519085004 58 106 1.0 3.0 0.00 0.00 0.00 59 1002.3
20240519083004 58 157 2.0 3.0 0.00 0.00 0.00 57 1002.8
20240519082005 58 79 0.0 3.0 0.00 0.00 0.00 57 1002.8
20240519081003 58 115 1.0 3.0 0.00 0.00 0.00 57 1002.4
20240519080004 58 99 1.0 7.0 0.00 0.00 0.00 56 1002.8
20240519075005 58 88 2.0 6.0 0.00 0.00 0.00 56 1003.0
20240519074004 58 165 0.0 3.0 0.00 0.00 0.00 56 1003.1
20240519073003 58 161 1.0 3.0 0.00 0.00 0.00 55 1003.5
20240519072004 58 63 2.0 6.0 0.00 0.00 0.00 55 1003.3
20240519071004 57 69 1.0 6.0 0.00 0.00 0.00 57 1003.6
20240519070004 57 84 1.0 2.0 0.00 0.00 0.00 58 1003.7
20240519065004 57 86 0.0 2.0 0.00 0.00 0.00 57 1003.7
20240519064004 57 77 1.0 2.0 0.00 0.00 0.00 57 1003.4
20240519063004 58 84 0.0 2.0 0.00 0.00 0.00 57 1003.3
20240519061003 58 61 0.0 2.0 0.00 0.00 0.00 55 1003.3
20240519060003 58 59 1.0 7.0 0.00 0.00 0.00 56 1003.4
20240519055004 58 141 1.0 7.0 0.00 0.00 0.00 56 1003.5
20240519054005 57 105 1.0 3.0 0.00 0.00 0.00 57 1003.4
20240519053003 57 79 0.0 3.0 0.00 0.00 0.00 58 1003.3
20240519052006 58 67 1.0 3.0 0.00 0.00 0.00 58 1003.1
20240519051004 58 79 1.0 3.0 0.00 0.00 0.00 57 1003.0
20240519045004 59 283 0.0 5.0 0.00 0.00 0.00 55 1003.0
20240519044004 59 148 0.0 3.0 0.00 0.00 0.00 55 1003.0
20240519043003 60 76 1.0 8.0 0.00 0.00 0.00 55 1003.1
20240519042003 60 126 0.0 5.0 0.00 0.00 0.00 54 1003.0
20240519041004 61 137 1.0 5.0 0.00 0.00 0.00 54 1003.0
20240519040004 61 126 0.0 1.0 0.00 0.00 0.00 53 1002.9
20240519034004 62 129 1.0 3.0 0.00 0.00 0.00 51 1003.2
20240519033004 62 98 1.0 3.0 0.00 0.00 0.00 51 1003.0
20240519030004 62 59 1.0 3.0 0.00 0.00 0.00 54 1003.5
20240519025004 63 84 1.0 3.0 0.00 0.00 0.00 54 1003.7
20240519024004 63 133 2.0 6.0 0.00 0.00 0.00 52 1003.7
20240519023004 63 95 1.0 3.0 0.00 0.00 0.00 52 1003.5
20240519022004 64 75 1.0 3.0 0.00 0.00 0.00 50 1003.2
20240519021004 64 120 0.0 3.0 0.00 0.00 0.00 48 1003.3
20240519020003 65 157 0.0 5.0 0.00 0.00 0.00 47 1003.2
20240519015005 66 139 1.0 5.0 0.00 0.00 0.00 45 1003.4
20240519012005 68 326 2.0 5.0 0.00 0.00 0.00 40 1003.2
20240519011004 69 314 1.0 6.0 0.00 0.00 0.00 39 1003.3
20240519010003 69 140 3.0 9.0 0.00 0.00 0.00 35 1003.3
20240519004004 69 161 6.0 17.0 0.00 0.00 0.00 35 1003.3
20240519003004 69 185 3.0 13.0 0.00 0.00 0.00 36 1002.9
20240519001004 69 143 4.0 13.0 0.00 0.00 0.00 40 1002.2
20240519000004 69 112 3.0 15.0 0.00 0.00 0.00 40 1002.1
20240518235003 69 157 5.0 15.0 0.00 0.00 0.00 40 1001.9
20240518234004 69 344 2.0 12.0 0.00 0.00 0.00 40 1001.6
20240518233004 69 206 4.0 13.0 0.00 0.00 0.00 38 1001.7
20240518232004 70 140 5.0 13.0 0.00 0.00 0.00 38 1001.7
20240518231004 70 151 5.0 20.0 0.00 0.00 0.00 38 1001.5
20240518230004 71 148 5.0 20.0 0.00 0.00 0.00 38 1001.4
20240518225004 72 159 4.0 14.0 0.00 0.00 0.00 38 1001.2
20240518224004 73 101 3.0 15.0 0.00 0.00 0.00 41 1001.0
20240518223004 75 95 1.0 10.0 0.00 0.00 0.00 39 1001.1
20240518222004 75 94 3.0 7.0 0.00 0.00 0.00 38 1001.1
20240518221004 74 120 4.0 13.0 0.00 0.00 0.00 42 1001.1
20240518220004 72 45 3.0 10.0 0.00 0.00 0.00 44 1001.3
20240518215003 70 125 3.0 10.0 0.00 0.00 0.00 48 1001.5
20240518214004 69 90 4.0 12.0 0.00 0.00 0.00 44 1001.8